Location: Shenandoah County Park
(38.9356°N, 78.4524°W)
Time: 06:51:10
(UTC-04:00)

Vanguard 1 Rocket - Pass Details

Date: 11 February 2023
Orbit: 652 x 4223 km, 34.3° (Epoch: 26 March)

Event Time Altitude Azimuth Distance (km) Brightness Sun altitude
Rises 12:39:05 0° 264° (W) 4,070 10.8 37.1°
Reaches altitude 10° 12:41:17 10° 262° (W) 3,381 10.6 37.0°
Maximum altitude 12:50:06 71° 180° (S) 2,136 10.4 36.9°
Drops below altitude 10° 13:08:01 10° 101° (E) 6,391 11.8 36.3°
Sets 13:14:03 0° 100° (E) 7,856 12.1 36.1°
